Time,TemperatureF,DewpointF,PressureIn,WindDirection,WindDirectionDegrees,WindSpeedMPH,WindSpeedGustMPH,Humidity,HourlyPrecipIn,Conditions,Clouds,dailyrainin,SoftwareType,DateUTC
2013-10-07 00:01:00,55.0,54.0,29.61,ENE,67,4.0,6.0,97,0.00,,,0.00,Rainwise IP-100,2013-10-07 04:01:00,
2013-10-07 00:06:00,55.0,54.0,29.61,NE,45,3.0,5.0,97,0.00,,,0.00,Rainwise IP-100,2013-10-07 04:06:00,
2013-10-07 00:11:00,55.0,54.0,29.60,NE,45,0.0,4.0,97,0.00,,,0.00,Rainwise IP-100,2013-10-07 04:11:00,
2013-10-07 00:16:00,55.0,54.0,29.60,NE,45,0.0,1.0,97,0.00,,,0.00,Rainwise IP-100,2013-10-07 04:16:00,
2013-10-07 00:21:00,55.0,54.0,29.60,NE,45,1.0,2.0,97,0.06,,,0.01,Rainwise IP-100,2013-10-07 04:21:00,
2013-10-07 00:26:00,55.0,54.0,29.60,NE,45,3.0,5.0,97,0.06,,,0.01,Rainwise IP-100,2013-10-07 04:26:00,
2013-10-07 00:31:00,55.0,54.0,29.60,NE,45,2.0,5.0,97,0.00,,,0.01,Rainwise IP-100,2013-10-07 04:31:00,
2013-10-07 00:36:00,55.0,54.0,29.60,NE,45,0.0,3.0,97,0.00,,,0.01,Rainwise IP-100,2013-10-07 04:36:00,
2013-10-07 00:41:00,55.0,54.0,29.60,NE,45,2.0,3.0,97,0.00,,,0.01,Rainwise IP-100,2013-10-07 04:41:00,
2013-10-07 00:46:00,55.0,54.0,29.60,North,360,5.0,6.0,97,0.00,,,0.01,Rainwise IP-100,2013-10-07 04:46:00,
2013-10-07 00:51:00,55.0,54.0,29.60,North,360,3.0,6.0,97,0.00,,,0.01,Rainwise IP-100,2013-10-07 04:51:00,
2013-10-07 00:56:00,55.0,54.0,29.60,North,360,0.0,6.0,97,0.06,,,0.02,Rainwise IP-100,2013-10-07 04:56:00,
2013-10-07 01:01:00,55.0,54.0,29.59,NNE,22,4.0,6.0,97,0.06,,,0.02,Rainwise IP-100,2013-10-07 05:01:00,
2013-10-07 01:06:00,55.0,54.0,29.59,NE,45,2.0,6.0,97,0.00,,,0.02,Rainwise IP-100,2013-10-07 05:06:00,
2013-10-07 01:11:00,55.0,54.0,29.59,NE,45,5.0,7.0,97,0.00,,,0.02,Rainwise IP-100,2013-10-07 05:11:00,
2013-10-07 01:16:00,55.0,54.0,29.59,NNE,22,0.0,6.0,97,0.00,,,0.02,Rainwise IP-100,2013-10-07 05:16:00,
2013-10-07 01:21:00,55.0,54.0,29.59,ENE,67,0.0,6.0,97,0.00,,,0.02,Rainwise IP-100,2013-10-07 05:21:00,
2013-10-07 01:26:00,55.0,54.0,29.59,NNE,22,0.0,3.0,97,0.00,,,0.02,Rainwise IP-100,2013-10-07 05:26:00,
2013-10-07 01:31:00,55.0,54.0,29.59,NE,45,0.0,3.0,97,0.00,,,0.02,Rainwise IP-100,2013-10-07 05:31:00,
2013-10-07 01:36:00,55.0,54.0,29.59,NE,45,0.0,3.0,97,0.00,,,0.02,Rainwise IP-100,2013-10-07 05:36:00,
2013-10-07 01:41:00,55.0,54.0,29.58,NE,45,0.0,2.0,97,0.00,,,0.02,Rainwise IP-100,2013-10-07 05:41:00,
2013-10-07 01:46:00,55.0,54.0,29.58,NE,45,0.0,0.0,97,0.00,,,0.02,Rainwise IP-100,2013-10-07 05:46:00,
2013-10-07 01:51:00,56.0,55.0,29.58,NE,45,3.0,5.0,97,0.00,,,0.02,Rainwise IP-100,2013-10-07 05:51:00,
2013-10-07 01:56:00,56.0,55.0,29.58,East,90,2.0,5.0,97,0.00,,,0.02,Rainwise IP-100,2013-10-07 05:56:00,
2013-10-07 02:01:00,56.0,55.0,29.57,East,90,0.0,3.0,97,0.00,,,0.02,Rainwise IP-100,2013-10-07 06:01:00,
2013-10-07 02:06:00,56.0,55.0,29.57,East,90,0.0,0.0,97,0.06,,,0.03,Rainwise IP-100,2013-10-07 06:06:00,
2013-10-07 02:11:00,56.0,55.0,29.57,East,90,1.0,3.0,97,0.06,,,0.03,Rainwise IP-100,2013-10-07 06:11:00,
2013-10-07 02:16:00,56.0,55.0,29.57,ENE,67,2.0,4.0,97,0.00,,,0.03,Rainwise IP-100,2013-10-07 06:16:00,
2013-10-07 02:21:00,56.0,55.0,29.56,ENE,67,0.0,2.0,97,0.00,,,0.03,Rainwise IP-100,2013-10-07 06:21:00,
2013-10-07 02:26:00,56.0,55.0,29.56,ENE,67,0.0,3.0,97,0.00,,,0.03,Rainwise IP-100,2013-10-07 06:26:00,
2013-10-07 02:31:00,56.0,55.0,29.56,ENE,67,4.0,6.0,97,0.00,,,0.03,Rainwise IP-100,2013-10-07 06:31:00,
2013-10-07 02:36:00,56.0,55.0,29.56,ENE,67,0.0,5.0,97,0.00,,,0.03,Rainwise IP-100,2013-10-07 06:36:00,
2013-10-07 02:41:00,56.0,55.0,29.56,ENE,67,1.0,3.0,97,0.00,,,0.03,Rainwise IP-100,2013-10-07 06:41:00,
2013-10-07 02:46:00,56.0,55.0,29.56,ENE,67,1.0,4.0,97,0.00,,,0.03,Rainwise IP-100,2013-10-07 06:46:00,
2013-10-07 02:51:00,56.0,55.0,29.55,ENE,67,1.0,2.0,97,0.00,,,0.03,Rainwise IP-100,2013-10-07 06:51:00,
2013-10-07 02:56:00,56.0,55.0,29.55,ENE,67,0.0,4.0,97,0.00,,,0.03,Rainwise IP-100,2013-10-07 06:56:00,
2013-10-07 03:01:00,56.0,55.0,29.55,ENE,67,0.0,2.0,97,0.00,,,0.03,Rainwise IP-100,2013-10-07 07:01:00,
2013-10-07 03:06:00,56.0,55.0,29.55,ENE,67,0.0,4.0,97,0.00,,,0.03,Rainwise IP-100,2013-10-07 07:06:00,
2013-10-07 03:11:00,56.0,55.0,29.55,ENE,67,0.0,3.0,97,0.00,,,0.03,Rainwise IP-100,2013-10-07 07:11:00,
2013-10-07 03:16:00,56.0,55.0,29.55,ENE,67,0.0,0.0,97,0.00,,,0.03,Rainwise IP-100,2013-10-07 07:16:00,
2013-10-07 03:21:00,56.0,55.0,29.55,NE,45,0.0,3.0,97,0.00,,,0.03,Rainwise IP-100,2013-10-07 07:21:00,
2013-10-07 03:26:00,56.0,55.0,29.55,NE,45,1.0,3.0,97,0.00,,,0.03,Rainwise IP-100,2013-10-07 07:26:00,
2013-10-07 03:31:00,56.0,55.0,29.53,NE,45,0.0,3.0,97,0.00,,,0.03,Rainwise IP-100,2013-10-07 07:31:00,
2013-10-07 03:36:00,56.0,55.0,29.53,NE,45,0.0,2.0,97,0.00,,,0.03,Rainwise IP-100,2013-10-07 07:36:00,
2013-10-07 03:41:00,56.0,55.0,29.53,NE,45,0.0,1.0,97,0.00,,,0.03,Rainwise IP-100,2013-10-07 07:41:00,
2013-10-07 03:46:00,57.0,56.0,29.53,NE,45,0.0,4.0,98,0.00,,,0.03,Rainwise IP-100,2013-10-07 07:46:00,
2013-10-07 03:51:00,57.0,56.0,29.53,NE,45,0.0,0.0,98,0.00,,,0.03,Rainwise IP-100,2013-10-07 07:51:00,
2013-10-07 03:56:00,57.0,56.0,29.53,NE,45,0.0,1.0,98,0.00,,,0.03,Rainwise IP-100,2013-10-07 07:56:00,
2013-10-07 04:01:00,57.0,56.0,29.53,NE,45,0.0,0.0,98,0.00,,,0.03,Rainwise IP-100,2013-10-07 08:01:00,
2013-10-07 04:06:00,57.0,56.0,29.53,NE,45,0.0,0.0,98,0.00,,,0.03,Rainwise IP-100,2013-10-07 08:06:00,
2013-10-07 04:11:00,57.0,56.0,29.53,NE,45,0.0,0.0,98,0.00,,,0.03,Rainwise IP-100,2013-10-07 08:11:00,
2013-10-07 04:16:00,57.0,56.0,29.53,NE,45,0.0,0.0,98,0.00,,,0.03,Rainwise IP-100,2013-10-07 08:16:00,
2013-10-07 04:21:00,57.0,56.0,29.53,NE,45,0.0,1.0,98,0.06,,,0.04,Rainwise IP-100,2013-10-07 08:21:00,
2013-10-07 04:26:00,57.0,56.0,29.53,NE,45,0.0,0.0,98,0.06,,,0.04,Rainwise IP-100,2013-10-07 08:26:00,
2013-10-07 04:31:00,57.0,56.0,29.52,NE,45,0.0,0.0,98,0.00,,,0.04,Rainwise IP-100,2013-10-07 08:31:00,
2013-10-07 04:36:00,57.0,56.0,29.52,NE,45,0.0,0.0,98,0.00,,,0.04,Rainwise IP-100,2013-10-07 08:36:00,
2013-10-07 04:41:00,57.0,56.0,29.53,NE,45,0.0,0.0,98,0.00,,,0.04,Rainwise IP-100,2013-10-07 08:41:00,
2013-10-07 04:46:00,57.0,56.0,29.53,NE,45,0.0,0.0,98,0.00,,,0.04,Rainwise IP-100,2013-10-07 08:46:00,
2013-10-07 04:51:00,57.0,56.0,29.53,NE,45,0.0,0.0,98,0.00,,,0.04,Rainwise IP-100,2013-10-07 08:51:00,
2013-10-07 04:56:00,57.0,56.0,29.53,NE,45,0.0,0.0,98,0.00,,,0.04,Rainwise IP-100,2013-10-07 08:56:00,
2013-10-07 05:01:00,57.0,56.0,29.52,NE,45,0.0,0.0,98,0.00,,,0.04,Rainwise IP-100,2013-10-07 09:01:00,
2013-10-07 05:06:00,57.0,56.0,29.52,NE,45,0.0,0.0,98,0.00,,,0.04,Rainwise IP-100,2013-10-07 09:06:00,
2013-10-07 05:11:00,57.0,56.0,29.53,NE,45,0.0,0.0,98,0.00,,,0.04,Rainwise IP-100,2013-10-07 09:11:00,
2013-10-07 05:16:00,57.0,56.0,29.53,NE,45,0.0,0.0,98,0.00,,,0.04,Rainwise IP-100,2013-10-07 09:16:00,
2013-10-07 05:21:00,57.0,56.0,29.53,NE,45,1.0,2.0,98,0.00,,,0.04,Rainwise IP-100,2013-10-07 09:21:00,
2013-10-07 05:26:00,57.0,56.0,29.52,NE,45,0.0,1.0,98,0.00,,,0.04,Rainwise IP-100,2013-10-07 09:26:00,
2013-10-07 05:31:00,57.0,56.0,29.52,NE,45,0.0,0.0,98,0.00,,,0.04,Rainwise IP-100,2013-10-07 09:31:00,
2013-10-07 05:36:00,57.0,56.0,29.52,NE,45,0.0,0.0,98,0.00,,,0.04,Rainwise IP-100,2013-10-07 09:36:00,
2013-10-07 05:41:00,57.0,56.0,29.52,NE,45,0.0,0.0,98,0.00,,,0.04,Rainwise IP-100,2013-10-07 09:41:00,
2013-10-07 05:46:00,57.0,56.0,29.52,NE,45,0.0,0.0,98,0.00,,,0.04,Rainwise IP-100,2013-10-07 09:46:00,
2013-10-07 05:51:00,57.0,56.0,29.51,NE,45,5.0,5.0,98,0.00,,,0.04,Rainwise IP-100,2013-10-07 09:51:00,
2013-10-07 05:56:00,57.0,56.0,29.51,East,90,2.0,5.0,98,0.00,,,0.04,Rainwise IP-100,2013-10-07 09:56:00,
2013-10-07 06:01:00,57.0,56.0,29.51,SE,135,1.0,6.0,98,0.00,,,0.04,Rainwise IP-100,2013-10-07 10:01:00,
2013-10-07 06:06:00,57.0,56.0,29.51,SE,135,0.0,2.0,98,0.00,,,0.04,Rainwise IP-100,2013-10-07 10:06:00,
2013-10-07 06:11:00,57.0,56.0,29.51,SE,135,0.0,1.0,98,0.00,,,0.04,Rainwise IP-100,2013-10-07 10:11:00,
2013-10-07 06:16:00,57.0,56.0,29.51,SE,135,0.0,0.0,98,0.00,,,0.04,Rainwise IP-100,2013-10-07 10:16:00,
2013-10-07 06:21:00,57.0,56.0,29.50,SE,135,0.0,3.0,98,0.00,,,0.04,Rainwise IP-100,2013-10-07 10:21:00,
2013-10-07 06:26:00,57.0,56.0,29.50,SE,135,0.0,1.0,98,0.00,,,0.04,Rainwise IP-100,2013-10-07 10:26:00,
2013-10-07 06:31:00,57.0,56.0,29.50,SE,135,0.0,0.0,98,0.00,,,0.04,Rainwise IP-100,2013-10-07 10:31:00,
2013-10-07 06:36:00,57.0,56.0,29.50,SE,135,0.0,2.0,98,0.00,,,0.04,Rainwise IP-100,2013-10-07 10:36:00,
2013-10-07 06:41:00,58.0,57.0,29.50,SE,135,0.0,0.0,98,0.00,,,0.04,Rainwise IP-100,2013-10-07 10:41:00,
2013-10-07 06:46:00,58.0,57.0,29.50,SE,135,0.0,0.0,98,0.00,,,0.04,Rainwise IP-100,2013-10-07 10:46:00,
2013-10-07 06:51:00,58.0,57.0,29.50,SE,135,0.0,0.0,98,0.00,,,0.04,Rainwise IP-100,2013-10-07 10:51:00,
2013-10-07 06:56:00,58.0,57.0,29.50,SE,135,0.0,0.0,98,0.00,,,0.04,Rainwise IP-100,2013-10-07 10:56:00,
2013-10-07 07:01:00,58.0,57.0,29.51,SE,135,0.0,0.0,98,0.00,,,0.04,Rainwise IP-100,2013-10-07 11:01:00,
2013-10-07 07:06:00,58.0,57.0,29.51,SE,135,0.0,0.0,98,0.00,,,0.04,Rainwise IP-100,2013-10-07 11:06:00,
2013-10-07 07:11:00,58.0,57.0,29.51,SE,135,0.0,0.0,98,0.06,,,0.05,Rainwise IP-100,2013-10-07 11:11:00,
2013-10-07 07:16:00,58.0,57.0,29.51,SE,135,0.0,0.0,98,0.06,,,0.05,Rainwise IP-100,2013-10-07 11:16:00,
2013-10-07 07:21:00,58.0,57.0,29.51,SE,135,0.0,0.0,98,0.00,,,0.05,Rainwise IP-100,2013-10-07 11:21:00,
2013-10-07 07:26:00,58.0,57.0,29.51,SE,135,0.0,0.0,98,0.00,,,0.05,Rainwise IP-100,2013-10-07 11:26:00,
2013-10-07 07:31:00,58.0,57.0,29.51,SE,135,0.0,0.0,98,0.00,,,0.05,Rainwise IP-100,2013-10-07 11:31:00,
2013-10-07 07:36:00,58.0,57.0,29.51,SE,135,0.0,0.0,98,0.00,,,0.05,Rainwise IP-100,2013-10-07 11:36:00,
2013-10-07 07:41:00,58.0,57.0,29.51,SE,135,0.0,0.0,98,0.00,,,0.05,Rainwise IP-100,2013-10-07 11:41:00,
2013-10-07 07:46:00,58.0,57.0,29.51,SE,135,0.0,0.0,98,0.00,,,0.05,Rainwise IP-100,2013-10-07 11:46:00,
2013-10-07 07:51:00,58.0,57.0,29.51,SE,135,0.0,0.0,98,0.00,,,0.05,Rainwise IP-100,2013-10-07 11:51:00,
2013-10-07 07:56:00,58.0,57.0,29.51,SE,135,0.0,0.0,98,0.00,,,0.05,Rainwise IP-100,2013-10-07 11:56:00,
2013-10-07 08:01:00,58.0,57.0,29.51,SE,135,0.0,0.0,98,0.00,,,0.05,Rainwise IP-100,2013-10-07 12:01:00,
2013-10-07 08:06:00,58.0,57.0,29.51,SE,135,0.0,1.0,98,0.00,,,0.05,Rainwise IP-100,2013-10-07 12:06:00,
2013-10-07 08:11:00,58.0,57.0,29.51,SE,135,1.0,2.0,98,0.00,,,0.05,Rainwise IP-100,2013-10-07 12:11:00,
2013-10-07 08:16:00,58.0,57.0,29.51,SE,135,2.0,3.0,98,0.00,,,0.05,Rainwise IP-100,2013-10-07 12:16:00,
2013-10-07 08:21:00,59.0,58.0,29.51,SE,135,3.0,3.0,98,0.00,,,0.05,Rainwise IP-100,2013-10-07 12:21:00,
2013-10-07 08:26:00,59.0,58.0,29.51,SE,135,1.0,4.0,98,0.00,,,0.05,Rainwise IP-100,2013-10-07 12:26:00,
2013-10-07 08:31:00,59.0,58.0,29.50,SE,135,1.0,3.0,98,0.00,,,0.05,Rainwise IP-100,2013-10-07 12:31:00,
2013-10-07 08:36:00,59.0,58.0,29.50,SE,135,1.0,4.0,98,0.00,,,0.05,Rainwise IP-100,2013-10-07 12:36:00,
2013-10-07 08:41:00,59.0,58.0,29.49,SE,135,3.0,5.0,98,0.00,,,0.05,Rainwise IP-100,2013-10-07 12:41:00,
2013-10-07 08:46:00,59.0,58.0,29.49,SE,135,0.0,5.0,98,0.00,,,0.05,Rainwise IP-100,2013-10-07 12:46:00,
2013-10-07 08:51:00,60.0,59.0,29.49,SE,135,4.0,6.0,98,0.00,,,0.05,Rainwise IP-100,2013-10-07 12:51:00,
2013-10-07 08:56:00,60.0,59.0,29.49,SE,135,1.0,6.0,98,0.00,,,0.05,Rainwise IP-100,2013-10-07 12:56:00,
2013-10-07 09:01:00,60.0,59.0,29.49,East,90,4.0,4.0,98,0.00,,,0.05,Rainwise IP-100,2013-10-07 13:01:00,
2013-10-07 09:06:00,60.0,59.0,29.49,East,90,0.0,4.0,98,0.00,,,0.05,Rainwise IP-100,2013-10-07 13:06:00,
2013-10-07 09:11:00,60.0,59.0,29.48,East,90,0.0,3.0,98,0.00,,,0.05,Rainwise IP-100,2013-10-07 13:11:00,
2013-10-07 09:16:00,60.0,59.0,29.48,ESE,112,3.0,3.0,98,0.00,,,0.05,Rainwise IP-100,2013-10-07 13:16:00,
2013-10-07 09:21:00,60.0,59.0,29.48,South,180,2.0,5.0,98,0.00,,,0.05,Rainwise IP-100,2013-10-07 13:21:00,
2013-10-07 09:26:00,60.0,59.0,29.48,SSE,157,1.0,4.0,98,0.00,,,0.05,Rainwise IP-100,2013-10-07 13:26:00,
2013-10-07 09:31:00,61.0,60.0,29.47,SSE,157,3.0,3.0,98,0.00,,,0.05,Rainwise IP-100,2013-10-07 13:31:00,
2013-10-07 09:36:00,61.0,60.0,29.47,SSE,157,0.0,5.0,98,0.00,,,0.05,Rainwise IP-100,2013-10-07 13:36:00,
2013-10-07 09:41:00,61.0,60.0,29.47,SSE,157,0.0,3.0,98,0.00,,,0.05,Rainwise IP-100,2013-10-07 13:41:00,
2013-10-07 09:46:00,61.0,60.0,29.47,East,90,0.0,2.0,98,0.00,,,0.05,Rainwise IP-100,2013-10-07 13:46:00,
2013-10-07 09:51:00,62.0,61.0,29.46,East,90,1.0,2.0,98,0.00,,,0.05,Rainwise IP-100,2013-10-07 13:51:00,
2013-10-07 09:56:00,62.0,61.0,29.46,SE,135,1.0,5.0,98,0.00,,,0.05,Rainwise IP-100,2013-10-07 13:56:00,
2013-10-07 10:01:00,62.0,61.0,29.46,SE,135,0.0,3.0,98,0.00,,,0.05,Rainwise IP-100,2013-10-07 14:01:00,
2013-10-07 10:06:00,62.0,61.0,29.46,SE,135,0.0,3.0,98,0.00,,,0.05,Rainwise IP-100,2013-10-07 14:06:00,
2013-10-07 10:11:00,62.0,61.0,29.46,SE,135,2.0,2.0,98,0.00,,,0.05,Rainwise IP-100,2013-10-07 14:11:00,
2013-10-07 10:16:00,63.0,62.0,29.46,SE,135,0.0,2.0,98,0.00,,,0.05,Rainwise IP-100,2013-10-07 14:16:00,
2013-10-07 10:21:00,63.0,62.0,29.45,SE,135,2.0,3.0,98,0.00,,,0.05,Rainwise IP-100,2013-10-07 14:21:00,
2013-10-07 10:26:00,63.0,62.0,29.45,SE,135,4.0,4.0,98,0.00,,,0.05,Rainwise IP-100,2013-10-07 14:26:00,
2013-10-07 10:31:00,63.0,62.0,29.45,SE,135,2.0,4.0,98,0.00,,,0.05,Rainwise IP-100,2013-10-07 14:31:00,
2013-10-07 10:36:00,64.0,63.0,29.44,SSE,157,2.0,6.0,98,0.00,,,0.05,Rainwise IP-100,2013-10-07 14:36:00,
2013-10-07 10:41:00,64.0,63.0,29.44,SE,135,6.0,6.0,98,0.00,,,0.05,Rainwise IP-100,2013-10-07 14:41:00,
2013-10-07 10:46:00,65.0,64.0,29.43,SE,135,6.0,6.0,99,0.00,,,0.05,Rainwise IP-100,2013-10-07 14:46:00,
2013-10-07 10:51:00,65.0,64.0,29.43,SE,135,6.0,6.0,99,0.00,,,0.05,Rainwise IP-100,2013-10-07 14:51:00,
2013-10-07 10:56:00,66.0,65.0,29.43,SE,135,5.0,7.0,99,0.00,,,0.05,Rainwise IP-100,2013-10-07 14:56:00,
2013-10-07 11:01:00,66.0,65.0,29.43,ESE,112,6.0,8.0,99,0.00,,,0.05,Rainwise IP-100,2013-10-07 15:01:00,
2013-10-07 11:06:00,66.0,65.0,29.43,ESE,112,6.0,9.0,99,0.00,,,0.05,Rainwise IP-100,2013-10-07 15:06:00,
2013-10-07 11:11:00,67.0,66.0,29.42,SE,135,4.0,10.0,99,0.00,,,0.05,Rainwise IP-100,2013-10-07 15:11:00,
2013-10-07 11:16:00,67.0,66.0,29.42,SE,135,5.0,7.0,99,0.00,,,0.05,Rainwise IP-100,2013-10-07 15:16:00,
2013-10-07 11:21:00,67.0,66.0,29.42,ESE,112,8.0,8.0,99,0.00,,,0.05,Rainwise IP-100,2013-10-07 15:21:00,
2013-10-07 11:26:00,67.0,66.0,29.42,SE,135,6.0,10.0,99,0.00,,,0.05,Rainwise IP-100,2013-10-07 15:26:00,
2013-10-07 11:31:00,68.0,67.0,29.42,SE,135,6.0,10.0,99,0.00,,,0.05,Rainwise IP-100,2013-10-07 15:31:00,
2013-10-07 11:36:00,68.0,67.0,29.41,SE,135,4.0,9.0,99,0.00,,,0.05,Rainwise IP-100,2013-10-07 15:36:00,
2013-10-07 11:41:00,69.0,68.0,29.41,SE,135,5.0,6.0,99,0.00,,,0.05,Rainwise IP-100,2013-10-07 15:41:00,
2013-10-07 11:46:00,69.0,68.0,29.41,ESE,112,6.0,13.0,99,0.00,,,0.05,Rainwise IP-100,2013-10-07 15:46:00,
2013-10-07 11:51:00,69.0,68.0,29.41,SE,135,7.0,10.0,99,0.00,,,0.05,Rainwise IP-100,2013-10-07 15:51:00,
2013-10-07 11:56:00,70.0,69.0,29.40,SE,135,6.0,12.0,99,0.00,,,0.05,Rainwise IP-100,2013-10-07 15:56:00,
2013-10-07 12:01:00,71.0,70.0,29.39,SE,135,5.0,10.0,99,0.00,,,0.05,Rainwise IP-100,2013-10-07 16:01:00,
2013-10-07 12:06:00,71.0,70.0,29.39,SSE,157,2.0,8.0,99,0.00,,,0.05,Rainwise IP-100,2013-10-07 16:06:00,
2013-10-07 12:11:00,71.0,70.0,29.39,SE,135,9.0,10.0,99,0.00,,,0.05,Rainwise IP-100,2013-10-07 16:11:00,
2013-10-07 12:16:00,71.0,70.0,29.39,SE,135,6.0,10.0,99,0.00,,,0.05,Rainwise IP-100,2013-10-07 16:16:00,
2013-10-07 12:21:00,72.0,71.0,29.39,ESE,112,6.0,13.0,99,0.00,,,0.05,Rainwise IP-100,2013-10-07 16:21:00,
2013-10-07 12:26:00,72.0,71.0,29.39,SE,135,7.0,10.0,98,0.00,,,0.05,Rainwise IP-100,2013-10-07 16:26:00,
2013-10-07 12:31:00,72.0,71.0,29.38,ESE,112,6.0,11.0,98,0.00,,,0.05,Rainwise IP-100,2013-10-07 16:31:00,
2013-10-07 12:36:00,72.0,71.0,29.38,ESE,112,8.0,12.0,96,0.00,,,0.05,Rainwise IP-100,2013-10-07 16:36:00,
2013-10-07 12:41:00,73.0,71.0,29.37,East,90,9.0,12.0,94,0.00,,,0.05,Rainwise IP-100,2013-10-07 16:41:00,
2013-10-07 12:46:00,73.0,71.0,29.37,SE,135,6.0,9.0,94,0.00,,,0.05,Rainwise IP-100,2013-10-07 16:46:00,
2013-10-07 12:51:00,74.0,71.0,29.36,SE,135,8.0,16.0,92,0.00,,,0.05,Rainwise IP-100,2013-10-07 16:51:00,
2013-10-07 12:56:00,73.0,70.0,29.36,SE,135,6.0,11.0,91,0.00,,,0.05,Rainwise IP-100,2013-10-07 16:56:00,
2013-10-07 13:01:00,73.0,70.0,29.36,ESE,112,3.0,12.0,92,0.00,,,0.05,Rainwise IP-100,2013-10-07 17:01:00,
2013-10-07 13:06:00,73.0,70.0,29.36,East,90,6.0,12.0,91,0.00,,,0.05,Rainwise IP-100,2013-10-07 17:06:00,
2013-10-07 13:11:00,73.0,70.0,29.36,SE,135,10.0,10.0,92,0.00,,,0.05,Rainwise IP-100,2013-10-07 17:11:00,
2013-10-07 13:16:00,73.0,70.0,29.35,SE,135,10.0,15.0,90,0.00,,,0.05,Rainwise IP-100,2013-10-07 17:16:00,
2013-10-07 13:21:00,74.0,71.0,29.34,South,180,6.0,12.0,90,0.00,,,0.05,Rainwise IP-100,2013-10-07 17:21:00,
2013-10-07 13:26:00,73.0,69.0,29.34,ESE,112,9.0,15.0,89,0.00,,,0.05,Rainwise IP-100,2013-10-07 17:26:00,
2013-10-07 13:31:00,73.0,70.0,29.35,SE,135,11.0,11.0,90,0.00,,,0.05,Rainwise IP-100,2013-10-07 17:31:00,
2013-10-07 13:36:00,73.0,69.0,29.35,SE,135,6.0,11.0,89,0.00,,,0.05,Rainwise IP-100,2013-10-07 17:36:00,
2013-10-07 13:41:00,74.0,70.0,29.33,SE,135,8.0,19.0,88,0.00,,,0.05,Rainwise IP-100,2013-10-07 17:41:00,
2013-10-07 13:46:00,74.0,70.0,29.33,SE,135,8.0,12.0,88,0.00,,,0.05,Rainwise IP-100,2013-10-07 17:46:00,
2013-10-07 13:51:00,74.0,69.0,29.32,ESE,112,8.0,14.0,86,0.00,,,0.05,Rainwise IP-100,2013-10-07 17:51:00,
2013-10-07 13:56:00,75.0,70.0,29.32,ESE,112,8.0,18.0,84,0.00,,,0.05,Rainwise IP-100,2013-10-07 17:56:00,
2013-10-07 14:01:00,75.0,70.0,29.32,SE,135,2.0,13.0,85,0.00,,,0.05,Rainwise IP-100,2013-10-07 18:01:00,
2013-10-07 14:06:00,75.0,70.0,29.32,SE,135,6.0,12.0,84,0.00,,,0.05,Rainwise IP-100,2013-10-07 18:06:00,
2013-10-07 14:11:00,75.0,70.0,29.31,ESE,112,5.0,13.0,84,0.00,,,0.05,Rainwise IP-100,2013-10-07 18:11:00,
2013-10-07 14:16:00,75.0,69.0,29.31,SSE,157,4.0,13.0,83,0.00,,,0.05,Rainwise IP-100,2013-10-07 18:16:00,
2013-10-07 14:21:00,75.0,69.0,29.31,SSE,157,7.0,13.0,82,0.00,,,0.05,Rainwise IP-100,2013-10-07 18:21:00,
2013-10-07 14:26:00,75.0,69.0,29.31,ESE,112,8.0,15.0,82,0.00,,,0.05,Rainwise IP-100,2013-10-07 18:26:00,
2013-10-07 14:31:00,75.0,68.0,29.31,SE,135,5.0,16.0,80,0.00,,,0.05,Rainwise IP-100,2013-10-07 18:31:00,
2013-10-07 14:36:00,75.0,69.0,29.31,SE,135,8.0,14.0,81,0.00,,,0.05,Rainwise IP-100,2013-10-07 18:36:00,
2013-10-07 14:41:00,75.0,68.0,29.30,SE,135,6.0,14.0,80,0.00,,,0.05,Rainwise IP-100,2013-10-07 18:41:00,
2013-10-07 14:46:00,76.0,69.0,29.30,SE,135,7.0,15.0,79,0.00,,,0.05,Rainwise IP-100,2013-10-07 18:46:00,
2013-10-07 14:51:00,76.0,68.0,29.30,SE,135,11.0,17.0,78,0.00,,,0.05,Rainwise IP-100,2013-10-07 18:51:00,
2013-10-07 14:56:00,76.0,69.0,29.30,SE,135,8.0,19.0,79,0.00,,,0.05,Rainwise IP-100,2013-10-07 18:56:00,
2013-10-07 15:01:00,75.0,67.0,29.30,SE,135,12.0,17.0,77,0.00,,,0.05,Rainwise IP-100,2013-10-07 19:01:00,
2013-10-07 15:06:00,75.0,67.0,29.30,East,90,5.0,16.0,77,0.00,,,0.05,Rainwise IP-100,2013-10-07 19:06:00,
2013-10-07 15:11:00,76.0,68.0,29.29,ESE,112,9.0,13.0,78,0.00,,,0.05,Rainwise IP-100,2013-10-07 19:11:00,
2013-10-07 15:16:00,76.0,68.0,29.29,South,180,4.0,9.0,78,0.00,,,0.05,Rainwise IP-100,2013-10-07 19:16:00,
2013-10-07 15:21:00,76.0,68.0,29.29,East,90,6.0,11.0,78,0.00,,,0.05,Rainwise IP-100,2013-10-07 19:21:00,
2013-10-07 15:26:00,76.0,68.0,29.29,ESE,112,8.0,13.0,78,0.00,,,0.05,Rainwise IP-100,2013-10-07 19:26:00,
2013-10-07 15:31:00,76.0,68.0,29.29,ESE,112,10.0,17.0,78,0.00,,,0.05,Rainwise IP-100,2013-10-07 19:31:00,
2013-10-07 15:36:00,75.0,68.0,29.29,ESE,112,9.0,15.0,79,0.00,,,0.05,Rainwise IP-100,2013-10-07 19:36:00,
2013-10-07 15:41:00,75.0,68.0,29.29,SE,135,6.0,15.0,80,0.00,,,0.05,Rainwise IP-100,2013-10-07 19:41:00,
2013-10-07 15:46:00,75.0,69.0,29.29,SE,135,9.0,14.0,81,0.00,,,0.05,Rainwise IP-100,2013-10-07 19:46:00,
2013-10-07 15:51:00,75.0,68.0,29.29,South,180,9.0,15.0,80,0.00,,,0.05,Rainwise IP-100,2013-10-07 19:51:00,
2013-10-07 15:56:00,75.0,69.0,29.28,ESE,112,9.0,15.0,82,0.00,,,0.05,Rainwise IP-100,2013-10-07 19:56:00,
2013-10-07 16:01:00,75.0,69.0,29.28,SE,135,4.0,12.0,82,0.00,,,0.05,Rainwise IP-100,2013-10-07 20:01:00,
2013-10-07 16:06:00,75.0,69.0,29.28,ESE,112,3.0,11.0,82,0.00,,,0.05,Rainwise IP-100,2013-10-07 20:06:00,
2013-10-07 16:11:00,75.0,69.0,29.27,ESE,112,14.0,14.0,82,0.00,,,0.05,Rainwise IP-100,2013-10-07 20:11:00,
2013-10-07 16:16:00,75.0,69.0,29.27,West,270,3.0,14.0,83,0.00,,,0.05,Rainwise IP-100,2013-10-07 20:16:00,
2013-10-07 16:21:00,74.0,69.0,29.28,SSW,202,9.0,19.0,83,0.00,,,0.05,Rainwise IP-100,2013-10-07 20:21:00,
2013-10-07 16:26:00,74.0,69.0,29.28,East,90,5.0,11.0,84,0.00,,,0.05,Rainwise IP-100,2013-10-07 20:26:00,
2013-10-07 16:31:00,74.0,69.0,29.27,East,90,6.0,16.0,84,0.00,,,0.05,Rainwise IP-100,2013-10-07 20:31:00,
2013-10-07 16:36:00,74.0,69.0,29.27,South,180,13.0,13.0,85,0.00,,,0.05,Rainwise IP-100,2013-10-07 20:36:00,
2013-10-07 16:41:00,74.0,69.0,29.27,SSE,157,5.0,15.0,84,0.00,,,0.05,Rainwise IP-100,2013-10-07 20:41:00,
2013-10-07 16:46:00,74.0,69.0,29.27,SE,135,4.0,13.0,85,0.00,,,0.05,Rainwise IP-100,2013-10-07 20:46:00,
2013-10-07 16:51:00,74.0,69.0,29.27,SE,135,9.0,12.0,85,0.00,,,0.05,Rainwise IP-100,2013-10-07 20:51:00,
2013-10-07 16:56:00,74.0,69.0,29.27,SE,135,4.0,12.0,86,0.00,,,0.05,Rainwise IP-100,2013-10-07 20:56:00,
2013-10-07 17:01:00,73.0,69.0,29.27,SE,135,2.0,12.0,86,0.00,,,0.05,Rainwise IP-100,2013-10-07 21:01:00,
2013-10-07 17:06:00,73.0,69.0,29.26,SE,135,4.0,13.0,86,0.00,,,0.05,Rainwise IP-100,2013-10-07 21:06:00,
2013-10-07 17:11:00,73.0,69.0,29.26,SSE,157,7.0,15.0,86,0.00,,,0.05,Rainwise IP-100,2013-10-07 21:11:00,
2013-10-07 17:16:00,73.0,69.0,29.27,ESE,112,7.0,12.0,87,0.00,,,0.05,Rainwise IP-100,2013-10-07 21:16:00,
2013-10-07 17:21:00,73.0,69.0,29.27,ESE,112,7.0,12.0,87,0.00,,,0.05,Rainwise IP-100,2013-10-07 21:21:00,
2013-10-07 17:26:00,73.0,69.0,29.27,SSE,157,6.0,12.0,87,0.00,,,0.05,Rainwise IP-100,2013-10-07 21:26:00,
2013-10-07 17:31:00,73.0,69.0,29.27,SW,225,6.0,15.0,87,0.00,,,0.05,Rainwise IP-100,2013-10-07 21:31:00,
2013-10-07 17:36:00,73.0,69.0,29.27,SE,135,8.0,16.0,87,0.00,,,0.05,Rainwise IP-100,2013-10-07 21:36:00,
2013-10-07 17:41:00,73.0,69.0,29.26,SSE,157,10.0,11.0,87,0.00,,,0.05,Rainwise IP-100,2013-10-07 21:41:00,
2013-10-07 17:46:00,73.0,69.0,29.26,SE,135,5.0,10.0,87,0.00,,,0.05,Rainwise IP-100,2013-10-07 21:46:00,
2013-10-07 17:51:00,73.0,69.0,29.27,South,180,6.0,10.0,87,0.00,,,0.05,Rainwise IP-100,2013-10-07 21:51:00,
2013-10-07 17:56:00,73.0,69.0,29.27,SE,135,9.0,10.0,87,0.00,,,0.05,Rainwise IP-100,2013-10-07 21:56:00,
2013-10-07 18:01:00,73.0,69.0,29.27,WSW,247,6.0,9.0,87,0.00,,,0.05,Rainwise IP-100,2013-10-07 22:01:00,
2013-10-07 18:06:00,73.0,69.0,29.27,SE,135,8.0,13.0,86,0.00,,,0.05,Rainwise IP-100,2013-10-07 22:06:00,
2013-10-07 18:11:00,73.0,69.0,29.27,SE,135,9.0,10.0,86,0.00,,,0.05,Rainwise IP-100,2013-10-07 22:11:00,
2013-10-07 18:16:00,73.0,69.0,29.27,SSE,157,6.0,10.0,87,0.00,,,0.05,Rainwise IP-100,2013-10-07 22:16:00,
2013-10-07 18:21:00,73.0,69.0,29.27,SE,135,8.0,12.0,87,0.00,,,0.05,Rainwise IP-100,2013-10-07 22:21:00,
2013-10-07 18:26:00,73.0,69.0,29.27,SE,135,12.0,12.0,87,0.00,,,0.05,Rainwise IP-100,2013-10-07 22:26:00,
2013-10-07 18:31:00,73.0,69.0,29.26,ESE,112,7.0,12.0,87,0.00,,,0.05,Rainwise IP-100,2013-10-07 22:31:00,
2013-10-07 18:36:00,73.0,69.0,29.26,SE,135,4.0,9.0,88,0.00,,,0.05,Rainwise IP-100,2013-10-07 22:36:00,
2013-10-07 18:41:00,73.0,69.0,29.26,SE,135,6.0,15.0,87,0.00,,,0.05,Rainwise IP-100,2013-10-07 22:41:00,
2013-10-07 18:46:00,73.0,69.0,29.26,SE,135,8.0,11.0,88,0.00,,,0.05,Rainwise IP-100,2013-10-07 22:46:00,
2013-10-07 18:51:00,73.0,69.0,29.26,ESE,112,6.0,11.0,88,0.00,,,0.05,Rainwise IP-100,2013-10-07 22:51:00,
2013-10-07 18:56:00,73.0,69.0,29.27,ESE,112,6.0,13.0,88,0.00,,,0.05,Rainwise IP-100,2013-10-07 22:56:00,
2013-10-07 19:01:00,73.0,69.0,29.26,SE,135,6.0,13.0,88,0.00,,,0.05,Rainwise IP-100,2013-10-07 23:01:00,
2013-10-07 19:06:00,72.0,68.0,29.26,SE,135,12.0,15.0,88,0.00,,,0.05,Rainwise IP-100,2013-10-07 23:06:00,
2013-10-07 19:11:00,73.0,69.0,29.26,South,180,5.0,15.0,87,0.00,,,0.05,Rainwise IP-100,2013-10-07 23:11:00,
2013-10-07 19:16:00,72.0,68.0,29.26,ESE,112,6.0,11.0,87,0.00,,,0.05,Rainwise IP-100,2013-10-07 23:16:00,
2013-10-07 19:21:00,72.0,68.0,29.26,ESE,112,6.0,11.0,88,0.00,,,0.05,Rainwise IP-100,2013-10-07 23:21:00,
2013-10-07 19:26:00,72.0,68.0,29.27,SSW,202,6.0,10.0,88,0.00,,,0.05,Rainwise IP-100,2013-10-07 23:26:00,
2013-10-07 19:31:00,72.0,67.0,29.28,SE,135,6.0,10.0,86,0.00,,,0.05,Rainwise IP-100,2013-10-07 23:31:00,
2013-10-07 19:36:00,72.0,68.0,29.28,South,180,6.0,14.0,88,0.06,,,0.06,Rainwise IP-100,2013-10-07 23:36:00,
2013-10-07 19:40:00,72.0,68.0,29.28,SE,135,6.0,9.0,88,0.06,,,0.06,Rainwise IP-100,2013-10-07 23:40:00,
2013-10-07 19:45:00,69.0,67.0,29.30,SSE,157,3.0,15.0,96,0.54,,,0.15,Rainwise IP-100,2013-10-07 23:45:00,
2013-10-07 19:50:00,68.0,66.0,29.30,WSW,247,3.0,9.0,96,0.54,,,0.15,Rainwise IP-100,2013-10-07 23:50:00,
2013-10-07 19:51:00,68.0,66.0,29.29,SE,135,1.0,7.0,96,0.54,,,0.15,Rainwise IP-100,2013-10-07 23:51:00,
2013-10-07 19:55:00,68.0,67.0,29.29,West,270,4.0,7.0,97,0.00,,,0.15,Rainwise IP-100,2013-10-07 23:55:00,
2013-10-07 20:00:00,67.0,66.0,29.29,West,270,6.0,7.0,98,0.00,,,0.15,Rainwise IP-100,2013-10-08 00:00:00,
2013-10-07 20:05:00,67.0,66.0,29.30,SW,225,0.0,7.0,98,0.00,,,0.15,Rainwise IP-100,2013-10-08 00:05:00,
2013-10-07 20:10:00,67.0,66.0,29.30,WSW,247,0.0,7.0,99,0.00,,,0.15,Rainwise IP-100,2013-10-08 00:10:00,
2013-10-07 20:15:00,67.0,66.0,29.29,WNW,292,0.0,3.0,99,0.00,,,0.15,Rainwise IP-100,2013-10-08 00:15:00,
2013-10-07 20:20:00,67.0,66.0,29.29,South,180,0.0,5.0,99,0.00,,,0.15,Rainwise IP-100,2013-10-08 00:20:00,
2013-10-07 20:25:00,67.0,66.0,29.29,ENE,67,1.0,4.0,99,0.00,,,0.15,Rainwise IP-100,2013-10-08 00:25:00,
2013-10-07 20:30:00,67.0,66.0,29.29,ESE,112,2.0,5.0,99,0.00,,,0.15,Rainwise IP-100,2013-10-08 00:30:00,
2013-10-07 20:35:00,67.0,66.0,29.29,SSE,157,0.0,2.0,99,0.00,,,0.15,Rainwise IP-100,2013-10-08 00:35:00,
2013-10-07 20:40:00,67.0,66.0,29.29,SSE,157,0.0,3.0,99,0.00,,,0.15,Rainwise IP-100,2013-10-08 00:40:00,
2013-10-07 20:45:00,67.0,66.0,29.29,SE,135,4.0,8.0,99,0.00,,,0.15,Rainwise IP-100,2013-10-08 00:45:00,
2013-10-07 20:50:00,67.0,66.0,29.29,ESE,112,6.0,7.0,99,0.00,,,0.15,Rainwise IP-100,2013-10-08 00:50:00,
2013-10-07 20:55:00,67.0,66.0,29.29,SSW,202,2.0,13.0,99,0.00,,,0.15,Rainwise IP-100,2013-10-08 00:55:00,
2013-10-07 21:00:00,67.0,66.0,29.29,East,90,4.0,5.0,99,0.00,,,0.15,Rainwise IP-100,2013-10-08 01:00:00,
2013-10-07 21:05:00,67.0,66.0,29.29,SSW,202,4.0,7.0,99,0.00,,,0.15,Rainwise IP-100,2013-10-08 01:05:00,
2013-10-07 21:10:00,67.0,66.0,29.29,SSW,202,6.0,6.0,99,0.00,,,0.15,Rainwise IP-100,2013-10-08 01:10:00,
2013-10-07 21:15:00,67.0,66.0,29.30,SE,135,1.0,6.0,99,0.00,,,0.15,Rainwise IP-100,2013-10-08 01:15:00,
2013-10-07 21:20:00,67.0,66.0,29.30,ENE,67,2.0,5.0,99,0.00,,,0.15,Rainwise IP-100,2013-10-08 01:20:00,
2013-10-07 21:25:00,67.0,66.0,29.30,NW,315,9.0,10.0,99,0.00,,,0.15,Rainwise IP-100,2013-10-08 01:25:00,
2013-10-07 21:30:00,65.0,64.0,29.30,WNW,292,9.0,13.0,98,0.06,,,0.16,Rainwise IP-100,2013-10-08 01:30:00,
2013-10-07 21:35:00,63.0,62.0,29.33,NW,315,7.0,11.0,98,0.06,,,0.16,Rainwise IP-100,2013-10-08 01:35:00,
2013-10-07 21:40:00,62.0,61.0,29.33,WSW,247,5.0,8.0,98,0.00,,,0.16,Rainwise IP-100,2013-10-08 01:40:00,
2013-10-07 21:45:00,61.0,60.0,29.34,WNW,292,7.0,9.0,98,0.00,,,0.16,Rainwise IP-100,2013-10-08 01:45:00,
2013-10-07 21:50:00,61.0,60.0,29.34,WSW,247,5.0,9.0,98,0.00,,,0.16,Rainwise IP-100,2013-10-08 01:50:00,
2013-10-07 21:55:00,61.0,60.0,29.35,WSW,247,2.0,9.0,98,0.00,,,0.16,Rainwise IP-100,2013-10-08 01:55:00,
2013-10-07 22:00:00,61.0,60.0,29.35,WNW,292,3.0,7.0,98,0.00,,,0.16,Rainwise IP-100,2013-10-08 02:00:00,
2013-10-07 22:05:00,60.0,59.0,29.35,NW,315,3.0,7.0,98,0.00,,,0.16,Rainwise IP-100,2013-10-08 02:05:00,
2013-10-07 22:10:00,60.0,59.0,29.35,WNW,292,5.0,8.0,98,0.00,,,0.16,Rainwise IP-100,2013-10-08 02:10:00,
2013-10-07 22:15:00,60.0,59.0,29.35,NW,315,5.0,7.0,98,0.00,,,0.16,Rainwise IP-100,2013-10-08 02:15:00,
2013-10-07 22:20:00,60.0,59.0,29.35,NW,315,7.0,10.0,98,0.00,,,0.16,Rainwise IP-100,2013-10-08 02:20:00,
2013-10-07 22:25:00,60.0,59.0,29.35,West,270,4.0,11.0,98,0.00,,,0.16,Rainwise IP-100,2013-10-08 02:25:00,
2013-10-07 22:30:00,60.0,59.0,29.35,NW,315,5.0,8.0,98,0.00,,,0.16,Rainwise IP-100,2013-10-08 02:30:00,
2013-10-07 22:35:00,60.0,59.0,29.36,East,90,0.0,8.0,98,0.00,,,0.16,Rainwise IP-100,2013-10-08 02:35:00,
2013-10-07 22:40:00,60.0,59.0,29.36,NW,315,1.0,8.0,98,0.00,,,0.16,Rainwise IP-100,2013-10-08 02:40:00,
2013-10-07 22:45:00,59.0,58.0,29.36,West,270,1.0,7.0,98,0.00,,,0.16,Rainwise IP-100,2013-10-08 02:45:00,
2013-10-07 22:50:00,59.0,58.0,29.36,NW,315,2.0,11.0,98,0.00,,,0.16,Rainwise IP-100,2013-10-08 02:50:00,
2013-10-07 22:55:00,59.0,58.0,29.37,WNW,292,3.0,6.0,98,0.00,,,0.16,Rainwise IP-100,2013-10-08 02:55:00,
2013-10-07 23:00:00,59.0,58.0,29.37,WNW,292,1.0,6.0,98,0.00,,,0.16,Rainwise IP-100,2013-10-08 03:00:00,
2013-10-07 23:05:00,59.0,58.0,29.37,NW,315,1.0,3.0,98,0.00,,,0.16,Rainwise IP-100,2013-10-08 03:05:00,
2013-10-07 23:10:00,59.0,58.0,29.37,West,270,2.0,5.0,98,0.00,,,0.16,Rainwise IP-100,2013-10-08 03:10:00,
2013-10-07 23:15:00,59.0,58.0,29.37,NW,315,4.0,5.0,98,0.00,,,0.16,Rainwise IP-100,2013-10-08 03:15:00,
2013-10-07 23:20:00,59.0,58.0,29.37,NW,315,1.0,5.0,98,0.00,,,0.16,Rainwise IP-100,2013-10-08 03:20:00,
2013-10-07 23:25:00,58.0,57.0,29.37,North,360,0.0,2.0,98,0.00,,,0.16,Rainwise IP-100,2013-10-08 03:25:00,
2013-10-07 23:30:00,58.0,57.0,29.37,North,360,2.0,3.0,98,0.00,,,0.16,Rainwise IP-100,2013-10-08 03:30:00,
2013-10-07 23:35:00,58.0,57.0,29.37,North,360,0.0,2.0,98,0.00,,,0.16,Rainwise IP-100,2013-10-08 03:35:00,
2013-10-07 23:40:00,58.0,57.0,29.37,West,270,3.0,6.0,98,0.00,,,0.16,Rainwise IP-100,2013-10-08 03:40:00,
2013-10-07 23:45:00,58.0,57.0,29.37,WSW,247,3.0,4.0,98,0.00,,,0.16,Rainwise IP-100,2013-10-08 03:45:00,
2013-10-07 23:50:00,58.0,57.0,29.37,WNW,292,1.0,4.0,98,0.00,,,0.16,Rainwise IP-100,2013-10-08 03:50:00,
2013-10-07 23:55:00,58.0,57.0,29.37,WNW,292,5.0,6.0,98,0.00,,,0.16,Rainwise IP-100,2013-10-08 03:55:00,